Weather in Esto-Altay

Russia / Republic of Kalmykia     46°12′06″N   42°13′36″E
temp.,
°C
wind,
m/s
gust,
m/s
humid.,
%
clouds,
%
prec.,
mm/h
press.,
hPa
HPBL,
m
12 april, mon
mon1200:00+11n118399 0.0 101711
03:00+10w2287100 0.0 101818
06:00+9w348998 0.0 101897
09:00+12w2380100 0.1 1020448
12:00+14nnw2271100 0.0 1020757
15:00+14wsw3279100 0.1 1021471
18:00+11w4692100 0.0 1021253
21:00+10w3495100 0.0 1022147
13 april, tue
tue1300:00+9w229788 0.0 102232
03:00+9wsw2396100 0.0 102284
06:00+9w1196100 0.0 102227
09:00+11sw1189100 0.0 1023250
12:00+12nne2183100 0.0 1023492
15:00+13sse0182100 0.0 1022301
18:00+12w348899 0.0 1021170
21:00+11wnw229299 0.0 102141
14 april, wed
wed1400:00+9nnw2294100 0.0 102022
03:00+9ene2289100 0.0 101923
06:00+8ene236960 0.0 101824
09:00+13ene345166 0.0 1017358
12:00+18e3441100 0.0 1016948
15:00+18ssw5549100 0.0 1016777
18:00+14sw1170100 0.0 101631
21:00+12ssw1172100 0.0 101610
15 april, thu
thu1500:00+10w338397 0.0 101629
03:00+9wsw0184100 0.0 101610
06:00+9wsw34955 0.0 101686
09:00+14wsw33735 0.0 1016581
12:00+17sw225513 0.0 10151448
15:00+19w234715 0.1 10141865
18:00+17nnw225974 0.0 101431
21:00+13ene006665 0.0 101510
16 april, fri
fri1600:00+13se116652 0.0 101410
03:00+12sw1272100 0.0 101410
06:00+11wnw61290100 0.1 1016432
09:00+12wsw3584100 0.4 1017347
12:00+16sw4563100 0.3 10171204
15:00+17w5649100 0.5 10171770
18:00+14w4768100 0.0 1017236
21:00+11w347643 0.0 101851